Volver al catálogo

SL-14 DEB

ActivoPO
NORAD 19295·DEBRIS·🇷🇺 Russia

Lanzado Oct 26, 1978 desde Plesetsk Cosmodrome

Loading…

Próximos Pases (próximas 24 horas)

TLE

ActualizadoSource: Space-Track

Época: Sep 14, 2026, 14:45 UTC

1 19295U 78100AE  26257.61479244 -.00000295  00000-0 -23846-2 0  9994
2 19295  81.9847 308.9034 0504360  72.6253  75.1685 12.07079746683940

Sigue SL-14 DEB en tiempo real con AllMySat

Download on the App Store